Location: Newark
(51.2625°N, 13.3939°E)
Time: 15:52:30
(UTC+00:00)

Explorer 7 - Pass Details

Date: 21 November 2019
Orbit: 485 x 680 km, 50.3° (Epoch: 06 December)

Event Time Altitude Azimuth Distance (km) Brightness Sun altitude
Rises 21:40:08 0° 207° (SSW) 2,979 - -55.7°
Reaches altitude 10° 21:42:57 10° 192° (SSW) 2,045 - -55.9°
Maximum altitude 21:46:31 22° 143° (SE) 1,400 - -56.2°
Drops below altitude 10° 21:49:57 10° 93° (E) 1,969 - -56.4°
Sets 21:52:36 0° 78° (ENE) 2,837 - -56.6°
